W5CRT Weather Reports


Display with metric or nautical units.
time (UTC)temp
F
wind
direction
speed
MPH
gust
MPH
rain 1hr
in
rain 24hr
in
rain mn
in
humidity
%
barometer
mb
20260506051301 61 26 9.0 12.0 0.00 0.00 0.00 76 1007.5
20260506050759 61 11 7.0 12.0 0.00 0.00 0.00 77 1007.3
20260506050256 62 342 5.0 9.0 0.00 0.00 0.00 77 1007.3
20260506044747 63 8 11.0 11.0 0.00 0.00 0.00 77 1007.5
20260506044244 63 23 4.0 7.0 0.00 0.00 0.00 78 1007.3
20260506043741 63 359 5.0 8.0 0.00 0.00 0.00 77 1007.2
20260506043238 63 20 8.0 11.0 0.00 0.00 0.00 77 1007.3
20260506042737 64 32 6.0 9.0 0.00 0.00 0.00 77 1007.2
20260506042235 64 9 9.0 11.0 0.00 0.00 0.00 77 1006.8
20260506041733 64 69 4.0 6.0 0.00 0.00 0.00 77 1006.6
20260506041230 65 352 5.0 8.0 0.00 0.00 0.00 77 1006.8
20260506040728 65 343 4.0 11.0 0.00 0.00 0.00 76 1007.0
20260506040225 65 6 7.0 11.0 0.00 0.00 0.00 76 1006.9
20260506035721 66 350 10.0 12.0 0.00 0.00 0.00 75 1006.9
20260506035218 66 333 9.0 10.0 0.00 0.00 0.00 75 1006.8
20260506034715 66 1 9.0 12.0 0.00 0.00 0.00 75 1006.6
20260506034212 67 344 4.0 11.0 0.00 0.00 0.00 75 1006.5
20260506033710 67 0 7.0 11.0 0.00 0.00 0.00 75 1006.8
20260506033206 68 351 6.0 11.0 0.00 0.00 0.00 75 1006.5
20260506032703 68 346 7.0 12.0 0.00 0.00 0.00 75 1006.5
20260506032200 68 345 3.0 11.0 0.00 0.00 0.00 75 1006.1
20260506031657 69 7 6.0 9.0 0.00 0.00 0.00 75 1006.1
20260506031154 69 354 9.0 12.0 0.00 0.00 0.00 74 1006.0
20260506030653 69 355 6.0 11.0 0.00 0.00 0.00 74 1006.1
20260506030149 70 12 7.0 10.0 0.00 0.00 0.00 74 1006.1
20260506025646 70 3 5.0 7.0 0.00 0.00 0.00 74 1005.8
20260506025142 70 343 9.0 12.0 0.00 0.00 0.00 73 1005.9
20260506024640 70 339 6.0 11.0 0.00 0.00 0.00 73 1005.4
20260506024136 71 4 8.0 9.0 0.00 0.00 0.00 73 1005.5
20260506023632 71 3 6.0 9.0 0.00 0.00 0.00 73 1005.1
20260506023130 71 1 5.0 10.0 0.00 0.00 0.00 73 1005.1
20260506022627 71 357 9.0 12.0 0.00 0.00 0.00 72 1005.0
20260506022124 72 6 7.0 10.0 0.00 0.00 0.00 72 1005.0
20260506021622 72 8 7.0 9.0 0.00 0.00 0.00 72 1004.4
20260506021119 73 14 4.0 9.0 0.00 0.00 0.00 72 1004.2
20260506020616 74 354 7.0 10.0 0.00 0.00 0.00 72 1004.7
20260506020114 74 333 2.0 8.0 0.00 0.00 0.00 71 1004.6
20260506015611 74 344 3.0 7.0 0.00 0.00 0.00 71 1004.7
20260506015108 74 350 3.0 5.0 0.00 0.00 0.00 71 1004.3
20260506014606 74 16 5.0 5.0 0.00 0.00 0.00 71 1004.4
20260506014101 75 358 3.0 4.0 0.00 0.00 0.00 70 1004.0
20260506013559 75 12 7.0 8.0 0.00 0.00 0.00 69 1004.1
20260506013056 75 350 5.0 5.0 0.00 0.00 0.00 69 1004.3
20260506012552 75 3 5.0 7.0 0.00 0.00 0.00 69 1004.5
20260506012048 75 329 3.0 5.0 0.00 0.00 0.00 69 1004.0
20260506011547 75 355 4.0 4.0 0.00 0.00 0.00 69 1003.8
20260506011043 76 343 2.0 4.0 0.00 0.00 0.00 68 1003.5
20260506010542 76 20 3.0 4.0 0.00 0.00 0.00 67 1003.6
20260506010038 76 335 4.0 6.0 0.00 0.00 0.00 67 1003.8
20260506005535 76 290 5.0 6.0 0.00 0.00 0.00 67 1004.1
20260506005031 77 340 3.0 5.0 0.00 0.00 0.00 66 1004.0
20260506004529 77 13 8.0 11.0 0.00 0.00 0.00 64 1004.0
20260506004025 78 325 5.0 6.0 0.00 0.00 0.00 64 1003.5
20260506003522 79 349 4.0 5.0 0.00 0.00 0.00 63 1003.7
20260506003018 79 323 4.0 6.0 0.00 0.00 0.00 62 1003.8
20260506002514 79 349 3.0 4.0 0.00 0.00 0.00 62 1004.2
20260506002009 80 357 3.0 10.0 0.00 0.00 0.00 61 1003.9
20260506001507 81 332 3.0 6.0 0.00 0.00 0.00 60 1003.7
20260506001004 82 314 5.0 8.0 0.00 0.00 0.00 61 1003.6
20260506000501 82 329 0.0 2.0 0.00 0.00 0.00 69 1003.0
20260505235958 82 271 1.0 2.0 0.00 0.00 0.00 70 1003.0
20260505235456 83 293 2.0 3.0 0.00 0.00 0.00 69 1002.9
20260505234953 84 258 2.0 3.0 0.00 0.00 0.00 67 1003.1
20260505234450 84 159 2.0 5.0 0.00 0.00 0.00 67 1002.9
20260505233947 84 153 2.0 6.0 0.00 0.00 0.00 66 1002.9
20260505233444 84 147 4.0 7.0 0.00 0.00 0.00 66 1002.7
20260505232942 85 166 4.0 5.0 0.00 0.00 0.00 66 1002.6
20260505232440 85 202 1.0 6.0 0.00 0.00 0.00 65 1002.6
20260505231936 85 158 3.0 7.0 0.00 0.00 0.00 65 1002.8
20260505231434 85 148 1.0 5.0 0.00 0.00 0.00 65 1002.6
20260505230932 86 212 5.0 6.0 0.00 0.00 0.00 64 1002.2
20260505230429 87 176 6.0 7.0 0.00 0.00 0.00 62 1002.5
20260505225925 88 153 6.0 6.0 0.00 0.00 0.00 61 1002.7
20260505225423 87 159 5.0 6.0 0.00 0.00 0.00 62 1002.7
20260505224918 87 189 2.0 4.0 0.00 0.00 0.00 63 1002.7
20260505224416 87 203 3.0 7.0 0.00 0.00 0.00 63 1002.6
20260505223912 87 212 3.0 10.0 0.00 0.00 0.00 61 1002.5
20260505223409 89 238 4.0 10.0 0.00 0.00 0.00 60 1002.2
20260505222905 89 164 4.0 5.0 0.00 0.00 0.00 58 1002.1
20260505222402 89 149 4.0 4.0 0.00 0.00 0.00 57 1002.2
20260505221858 89 170 2.0 9.0 0.00 0.00 0.00 58 1002.3
20260505221355 89 174 4.0 8.0 0.00 0.00 0.00 57 1002.3
20260505220853 90 156 2.0 5.0 0.00 0.00 0.00 57 1002.5
20260505220349 89 180 4.0 7.0 0.00 0.00 0.00 57 1002.5
20260505215847 89 181 2.0 7.0 0.00 0.00 0.00 58 1002.4
20260505215345 89 203 2.0 5.0 0.00 0.00 0.00 57 1002.5
20260505214843 89 172 4.0 7.0 0.00 0.00 0.00 57 1002.7
20260505214340 90 196 3.0 8.0 0.00 0.00 0.00 57 1002.6
20260505213837 88 184 2.0 6.0 0.00 0.00 0.00 58 1002.4
20260505213335 89 179 3.0 5.0 0.00 0.00 0.00 57 1002.6
20260505212831 89 237 5.0 7.0 0.00 0.00 0.00 57 1002.5
20260505212328 89 156 6.0 6.0 0.00 0.00 0.00 56 1002.8
20260505211824 89 200 5.0 10.0 0.00 0.00 0.00 57 1002.8
20260505211322 88 161 3.0 7.0 0.00 0.00 0.00 59 1002.8
20260505210818 88 180 2.0 7.0 0.00 0.00 0.00 60 1002.8
20260505210315 88 217 6.0 13.0 0.00 0.00 0.00 59 1002.7
20260505205812 88 189 4.0 10.0 0.00 0.00 0.00 59 1002.8
20260505205310 88 144 2.0 11.0 0.00 0.00 0.00 60 1002.7
20260505204807 88 191 4.0 12.0 0.00 0.00 0.00 60 1003.1
20260505204305 88 188 3.0 7.0 0.00 0.00 0.00 59 1003.2
20260505203801 88 185 4.0 9.0 0.00 0.00 0.00 59 1003.3
20260505203258 87 218 4.0 8.0 0.00 0.00 0.00 61 1003.1
20260505202754 87 172 7.0 9.0 0.00 0.00 0.00 60 1003.3
20260505202251 87 170 4.0 7.0 0.00 0.00 0.00 61 1003.1
20260505201747 86 179 1.0 12.0 0.00 0.00 0.00 62 1002.9
20260505201245 87 162 4.0 6.0 0.00 0.00 0.00 61 1003.1
20260505200743 87 203 4.0 13.0 0.00 0.00 0.00 61 1003.4
20260505200240 87 202 1.0 6.0 0.00 0.00 0.00 63 1003.4
20260505195735 86 201 7.0 13.0 0.00 0.00 0.00 63 1003.1
20260505195233 86 157 5.0 9.0 0.00 0.00 0.00 63 1003.4
20260505194730 85 178 3.0 6.0 0.00 0.00 0.00 65 1003.5
20260505194226 85 172 3.0 13.0 0.00 0.00 0.00 64 1003.5
20260505193722 85 53 2.0 8.0 0.00 0.00 0.00 64 1003.3
20260505193220 85 176 2.0 7.0 0.00 0.00 0.00 65 1003.4
20260505192718 85 229 6.0 8.0 0.00 0.00 0.00 64 1003.4
20260505192216 84 353 0.0 7.0 0.00 0.00 0.00 66 1003.4
20260505191714 83 204 3.0 13.0 0.00 0.00 0.00 66 1003.3
20260505191212 83 227 4.0 5.0 0.00 0.00 0.00 68 1003.4
20260505190708 83 178 2.0 15.0 0.00 0.00 0.00 65 1003.3
20260505190207 83 145 8.0 11.0 0.00 0.00 0.00 65 1003.3
20260505185704 83 159 5.0 7.0 0.00 0.00 0.00 66 1003.4
20260505185201 83 167 3.0 10.0 0.00 0.00 0.00 66 1003.2
20260505184657 82 223 4.0 13.0 0.00 0.00 0.00 67 1003.6
20260505184154 82 174 4.0 13.0 0.00 0.00 0.00 67 1003.6
20260505183651 83 152 5.0 8.0 0.00 0.00 0.00 66 1003.4
20260505183149 83 174 4.0 9.0 0.00 0.00 0.00 66 1003.3
20260505182645 83 205 7.0 12.0 0.00 0.00 0.00 65 1003.5
20260505182142 83 183 5.0 7.0 0.00 0.00 0.00 63 1003.6
20260505181638 83 229 9.0 11.0 0.00 0.00 0.00 65 1003.5
20260505181136 83 220 7.0 13.0 0.00 0.00 0.00 65 1003.4
20260505180632 84 255 3.0 16.0 0.00 0.00 0.00 64 1003.5
20260505180129 83 168 5.0 10.0 0.00 0.00 0.00 66 1003.3
20260505175625 83 196 6.0 8.0 0.00 0.00 0.00 66 1003.4
20260505175122 82 217 6.0 8.0 0.00 0.00 0.00 67 1003.5
20260505174618 82 167 5.0 10.0 0.00 0.00 0.00 68 1003.6
20260505174114 82 180 4.0 11.0 0.00 0.00 0.00 67 1003.4
20260505173611 82 173 5.0 10.0 0.00 0.00 0.00 66 1003.6
20260505173108 82 174 2.0 11.0 0.00 0.00 0.00 68 1003.3
20260505172606 81 56 1.0 11.0 0.00 0.00 0.00 68 1003.5
20260505172103 80 174 3.0 11.0 0.00 0.00 0.00 70 1003.6
20260505171603 80 154 7.0 15.0 0.00 0.00 0.00 69 1004.0
20260505171100 81 173 5.0 9.0 0.00 0.00 0.00 68 1003.8
20260505170557 81 189 6.0 8.0 0.00 0.00 0.00 68 1003.8
20260505170053 81 177 6.0 14.0 0.00 0.00 0.00 68 1003.4
20260505165548 81 248 4.0 8.0 0.00 0.00 0.00 70 1003.6
20260505165045 80 186 4.0 11.0 0.00 0.00 0.00 69 1003.5
20260505164540 80 178 3.0 13.0 0.00 0.00 0.00 71 1003.6
20260505164038 80 195 2.0 13.0 0.00 0.00 0.00 70 1003.8
20260505163537 79 182 8.0 9.0 0.00 0.00 0.00 71 1003.6
20260505163034 79 168 6.0 11.0 0.00 0.00 0.00 72 1003.6
20260505162532 78 178 5.0 19.0 0.00 0.00 0.00 72 1003.2
20260505162029 78 211 4.0 14.0 0.00 0.00 0.00 72 1003.4
20260505161525 78 187 4.0 12.0 0.00 0.00 0.00 72 1003.3
20260505161023 79 237 2.0 15.0 0.00 0.00 0.00 71 1003.2
20260505160521 78 261 3.0 8.0 0.00 0.00 0.00 73 1003.1
20260505152957 77 208 4.0 12.0 0.00 0.00 0.00 74 1003.3
20260505152455 76 210 7.0 16.0 0.00 0.00 0.00 76 1003.2
20260505151949 76 177 4.0 19.0 0.00 0.00 0.00 75 1003.4
20260505151445 76 157 6.0 14.0 0.00 0.00 0.00 76 1003.4
20260505150943 76 219 4.0 17.0 0.00 0.00 0.00 76 1003.1
20260505150439 76 200 6.0 13.0 0.00 0.00 0.00 76 1003.2
20260505140410 74 178 5.0 13.0 0.00 0.00 0.00 79 1003.0
20260505124823 72 155 5.0 7.0 0.00 0.00 0.00 81 1002.8
20260505124320 72 223 2.0 13.0 0.00 0.00 0.00 81 1002.8
20260505123816 72 149 6.0 11.0 0.00 0.00 0.00 82 1002.7
20260505123313 72 205 8.0 10.0 0.00 0.00 0.00 82 1002.5
20260505122809 72 146 1.0 11.0 0.00 0.00 0.00 82 1002.6
20260505122306 72 215 3.0 14.0 0.00 0.00 0.00 82 1002.7
20260505121802 72 155 13.0 18.0 0.00 0.00 0.00 82 1002.5
20260505121300 71 166 3.0 6.0 0.00 0.00 0.00 82 1002.4
20260505120756 71 161 6.0 7.0 0.00 0.00 0.00 82 1002.6
20260505120252 71 163 5.0 12.0 0.00 0.00 0.00 82 1002.4
20260505115751 71 192 3.0 11.0 0.00 0.00 0.00 82 1002.3
20260505115248 71 138 2.0 9.0 0.00 0.00 0.00 82 1002.4
20260505114746 71 178 7.0 11.0 0.00 0.00 0.00 82 1002.4
20260505114242 71 182 3.0 11.0 0.00 0.00 0.00 82 1001.8
20260505113739 71 206 4.0 11.0 0.00 0.00 0.00 82 1002.2
20260505113235 71 196 4.0 9.0 0.00 0.00 0.00 82 1002.2
20260505112731 71 168 3.0 10.0 0.00 0.00 0.00 82 1002.0
20260505112229 71 212 4.0 9.0 0.00 0.00 0.00 82 1002.3
20260505111729 71 148 3.0 11.0 0.00 0.00 0.00 82 1002.1
20260505111225 71 140 2.0 9.0 0.00 0.00 0.00 82 1002.1
20260505110721 71 168 5.0 8.0 0.00 0.00 0.00 82 1001.7
20260505110219 71 161 3.0 11.0 0.00 0.00 0.00 82 1001.7
20260505102154 71 163 3.0 9.0 0.00 0.00 0.00 82 1002.3
20260505101653 71 186 6.0 8.0 0.00 0.00 0.00 81 1002.0
20260505101149 71 169 3.0 11.0 0.00 0.00 0.00 81 1002.1
20260505100645 71 79 3.0 8.0 0.00 0.00 0.00 82 1002.3
20260505100142 71 152 4.0 8.0 0.00 0.00 0.00 82 1002.2
20260505095638 71 191 6.0 8.0 0.00 0.00 0.00 82 1002.5
20260505095135 71 159 4.0 9.0 0.00 0.00 0.00 82 1002.6
20260505094631 71 119 9.0 17.0 0.00 0.00 0.00 82 1002.5
20260505094128 71 109 1.0 11.0 0.00 0.00 0.00 82 1002.5
20260505093624 71 169 8.0 17.0 0.00 0.00 0.00 82 1002.5
20260505093121 71 133 4.0 12.0 0.00 0.00 0.00 82 1002.4
20260505092618 71 153 6.0 12.0 0.00 0.00 0.00 82 1002.8
20260505092118 71 210 4.0 12.0 0.00 0.00 0.00 82 1002.6
20260505091613 71 160 5.0 13.0 0.00 0.00 0.00 82 1002.8
20260505091112 71 168 2.0 9.0 0.00 0.00 0.00 82 1002.4
20260505090609 71 160 10.0 11.0 0.00 0.00 0.00 82 1002.4
20260505090107 71 162 8.0 12.0 0.00 0.00 0.00 82 1002.4
20260505085604 71 182 8.0 11.0 0.00 0.00 0.00 82 1002.4
20260505085103 71 212 9.0 19.0 0.00 0.00 0.00 82 1002.5
20260505084600 71 164 9.0 16.0 0.00 0.00 0.00 82 1002.3
20260505084058 71 176 6.0 17.0 0.00 0.00 0.00 82 1002.2
20260505083555 71 160 8.0 12.0 0.00 0.00 0.00 82 1002.4
20260505083052 71 212 5.0 8.0 0.00 0.00 0.00 82 1002.1
20260505082547 71 175 5.0 14.0 0.00 0.00 0.00 82 1002.5
20260505082045 71 163 6.0 15.0 0.00 0.00 0.00 82 1002.4
20260505081541 71 132 3.0 11.0 0.00 0.00 0.00 82 1002.4
20260505081038 71 140 4.0 11.0 0.00 0.00 0.00 82 1002.6
20260505080534 71 145 2.0 8.0 0.00 0.00 0.00 82 1002.5
20260505080031 71 146 5.0 14.0 0.00 0.00 0.00 81 1002.6
20260505075527 71 157 6.0 9.0 0.00 0.00 0.00 81 1002.7
20260505075024 71 165 9.0 12.0 0.00 0.00 0.00 81 1002.9
20260505074521 71 218 7.0 9.0 0.00 0.00 0.00 81 1002.8
20260505074018 71 188 5.0 10.0 0.00 0.00 0.00 80 1003.1
20260505073516 71 164 4.0 10.0 0.00 0.00 0.00 80 1003.0
20260505073014 71 175 6.0 13.0 0.00 0.00 0.00 80 1003.2
20260505072509 71 149 1.0 8.0 0.00 0.00 0.00 80 1003.2
20260505072006 72 167 5.0 6.0 0.00 0.00 0.00 79 1003.3
20260505071501 72 147 4.0 13.0 0.00 0.00 0.00 79 1003.2
20260505071000 72 188 6.0 9.0 0.00 0.00 0.00 79 1003.5
20260505070456 72 173 7.0 14.0 0.00 0.00 0.00 79 1003.5
20260505065952 72 138 8.0 10.0 0.00 0.00 0.00 78 1003.5
20260505065448 72 163 4.0 10.0 0.00 0.00 0.00 78 1003.5
20260505064945 72 309 3.0 9.0 0.00 0.00 0.00 78 1003.8
20260505064442 72 180 6.0 8.0 0.00 0.00 0.00 78 1003.7
20260505063941 72 162 3.0 10.0 0.00 0.00 0.00 77 1003.8
20260505063437 72 135 7.0 12.0 0.00 0.00 0.00 77 1003.7
20260505062933 72 162 6.0 8.0 0.00 0.00 0.00 77 1003.6
20260505062431 72 163 9.0 10.0 0.00 0.00 0.00 77 1003.8
20260505061927 72 132 3.0 12.0 0.00 0.00 0.00 76 1003.8
20260505061426 72 92 4.0 7.0 0.00 0.00 0.00 76 1003.9
20260505060923 72 200 4.0 17.0 0.00 0.00 0.00 76 1003.6
20260505060419 72 169 4.0 12.0 0.00 0.00 0.00 76 1004.0
20260505055916 72 177 6.0 17.0 0.00 0.00 0.00 76 1003.9
20260505055412 72 154 2.0 6.0 0.00 0.00 0.00 76 1003.9